Time_in_sec,Latitude,Longitude,Altitude,Nbsat_max_qualitysignal,Nbsat_locked,valid_data
1314362121.70944571,0.00023555,0.00011564,736.55718994,0,0,0
1314362230.96951556,0.00018874,0.00006886,1136.94836426,0,0,0
1314362231.01744270,0.00018861,0.00006901,1137.11657715,0,0,0
1314362231.06846571,0.00018871,0.00006884,1137.28295898,0,0,0
1314362231.11759400,0.00018857,0.00006898,1137.45117188,0,0,0
1314362231.16871166,0.00018867,0.00006881,1137.61767578,0,0,0
1314362231.22148705,0.00018854,0.00006896,1137.78576660,0,0,0
1314362231.26945782,0.00018864,0.00006879,1137.95227051,0,0,0
1314362231.32046294,0.00018850,0.00006893,1138.12023926,0,0,0
1314362231.36945796,0.00018860,0.00006876,1138.28662109,0,0,0
1314362231.41747737,0.00018847,0.00006891,1138.45471191,0,0,0
1314362231.46952319,0.00018857,0.00006873,1138.62097168,0,0,0
1314362231.52108407,0.00018843,0.00006888,1138.78906250,0,0,0
1314362231.56949973,0.00018853,0.00006871,1138.95532227,0,0,0
1314362231.61762166,0.00018840,0.00006885,1139.12329102,0,0,0
1314362231.66945887,0.00018850,0.00006868,1139.28955078,0,0,0
1314362231.71699023,0.00018836,0.00006883,1139.45751953,0,0,0
1314362231.76863480,0.00018846,0.00006866,1139.62365723,0,0,0
1314362231.81752014,0.00018833,0.00006880,1139.79162598,0,0,0
1314362231.86951256,0.00018843,0.00006863,1139.95776367,0,0,0
1314362231.92151999,0.00018829,0.00006878,1140.12561035,0,0,0
1314362231.96736503,0.00018840,0.00006860,1140.29162598,0,0,0
1314362232.01760578,0.00018826,0.00006875,1140.45947266,0,0,0
1314362232.06948304,0.00018836,0.00006858,1140.62548828,0,0,0
1314362232.11251140,0.00018822,0.00006872,1140.79321289,0,0,0
1314362232.17019510,0.00018821,0.00006871,1140.92675781,0,0,0
1314362232.22092509,0.00018819,0.00006870,1141.12695312,0,0,0
1314362232.26961613,0.00018829,0.00006852,1141.29296875,0,0,0
1314362232.32169771,0.00018815,0.00006867,1141.46057129,0,0,0
1314362232.36949039,0.00018826,0.00006850,1141.62646484,0,0,0
1314362232.42162919,0.00018812,0.00006864,1141.79406738,0,0,0
1314362232.46949530,0.00018822,0.00006847,1141.95996094,0,0,0
1314362232.52046084,0.00018809,0.00006862,1142.12756348,0,0,0
1314362232.56960464,0.00018819,0.00006845,1142.29333496,0,0,0
1314362232.61744952,0.00018805,0.00006859,1142.46093750,0,0,0
1314362232.66993046,0.00018815,0.00006842,1142.62670898,0,0,0
1314362232.72160769,0.00018802,0.00006856,1142.79418945,0,0,0
1314362232.76950240,0.00018812,0.00006839,1142.95983887,0,0,0
1314362232.81763101,0.00018798,0.00006854,1143.12731934,0,0,0
1314362232.86946583,0.00018809,0.00006837,1143.29296875,0,0,0
1314362232.92152882,0.00018795,0.00006851,1143.46044922,0,0,0
1314362232.96961737,0.00018805,0.00006834,1143.62597656,0,0,0
1314362233.01745605,0.00018792,0.00006849,1143.79333496,0,0,0
1314362233.06961584,0.00018802,0.00006831,1143.95898438,0,0,0
1314362233.11761642,0.00018788,0.00006846,1144.12634277,0,0,0
1314362233.16734767,0.00018799,0.00006829,1144.29187012,0,0,0
1314362233.22150946,0.00018785,0.00006843,1144.45910645,0,0,0
1314362233.26946712,0.00018795,0.00006826,1144.62463379,0,0,0
1314362233.30889988,0.00018781,0.00006841,1144.79187012,0,0,0
1314362233.36860228,0.00018780,0.00006839,1144.92492676,0,0,0
1314362233.41744137,0.00018778,0.00006838,1145.12451172,0,0,0
1314362233.46861148,0.00018788,0.00006821,1145.29003906,0,0,0
1314362233.51699972,0.00018775,0.00006835,1145.45715332,0,0,0
1314362233.56946111,0.00018785,0.00006818,1145.62255859,0,0,0
1314362233.62148619,0.00018771,0.00006833,1145.78967285,0,0,0
1314362233.66946459,0.00018782,0.00006815,1145.95507812,0,0,0
1314362233.70848441,0.00018768,0.00006830,1146.12219238,0,0,0
1314362233.76961350,0.00018767,0.00006829,1146.25524902,0,0,0
1314362233.81746602,0.00018765,0.00006827,1146.45471191,0,0,0
1314362233.86849880,0.00018775,0.00006810,1146.62011719,0,0,0
1314362233.92060637,0.00018761,0.00006825,1146.78710938,0,0,0
1314362233.96947384,0.00018772,0.00006807,1146.95239258,0,0,0
1314362234.02050567,0.00018758,0.00006822,1147.11950684,0,0,0
1314362234.06948328,0.00018768,0.00006804,1147.28479004,0,0,0
1314362234.12084150,0.00018755,0.00006819,1147.45178223,0,0,0
1314362234.16945553,0.00018765,0.00006802,1147.61706543,0,0,0
1314362234.21749449,0.00018751,0.00006816,1147.78405762,0,0,0
1314362234.26161170,0.00018762,0.00006799,1147.94921875,0,0,0
1314362234.32149053,0.00018760,0.00006798,1148.08215332,0,0,0
1314362234.36956835,0.00018758,0.00006796,1148.28137207,0,0,0
1314362234.42084098,0.00018745,0.00006811,1148.44824219,0,0,0
1314362234.46948719,0.00018755,0.00006794,1148.61340332,0,0,0
1314362234.52159047,0.00018741,0.00006808,1148.78027344,0,0,0
1314362234.56859732,0.00018752,0.00006791,1148.94531250,0,0,0
1314362234.61746550,0.00018738,0.00006806,1149.11218262,0,0,0
1314362234.66948199,0.00018748,0.00006788,1149.27722168,0,0,0
1314362234.72160149,0.00018735,0.00006803,1149.44396973,0,0,0
1314362234.76946187,0.00018745,0.00006786,1149.60900879,0,0,0
1314362234.82160592,0.00018732,0.00006800,1149.77575684,0,0,0
1314362234.86949492,0.00018742,0.00006783,1149.94079590,0,0,0
1314362234.91738153,0.00018728,0.00006797,1150.10754395,0,0,0
1314362234.96961737,0.00018739,0.00006780,1150.27246094,0,0,0
1314362235.01742339,0.00018725,0.00006795,1150.43908691,0,0,0
1314362235.06898046,0.00018735,0.00006777,1150.60400391,0,0,0
1314362235.12161541,0.00018722,0.00006792,1150.77062988,0,0,0
1314362235.17043638,0.00018732,0.00006775,1150.93542480,0,0,0
1314362235.21687245,0.00018719,0.00006789,1151.10205078,0,0,0
1314362235.26949501,0.00018729,0.00006772,1151.26684570,0,0,0
1314362235.31746387,0.00018715,0.00006787,1151.43334961,0,0,0
1314362235.36949873,0.00018725,0.00006769,1151.59814453,0,0,0
1314362235.41756940,0.00018712,0.00006784,1151.76464844,0,0,0
1314362235.46893334,0.00018722,0.00006767,1151.92932129,0,0,0
1314362235.52161598,0.00018709,0.00006781,1152.09582520,0,0,0
1314362235.56963062,0.00018719,0.00006764,1152.26049805,0,0,0
1314362235.62078786,0.00018705,0.00006779,1152.42700195,0,0,0
1314362235.67094731,0.00018716,0.00006761,1152.59167480,0,0,0
1314362235.72159624,0.00018702,0.00006776,1152.75805664,0,0,0
1314362235.76963472,0.00018712,0.00006759,1152.92260742,0,0,0
1314362235.82318854,0.00018699,0.00006773,1153.08898926,0,0,0
1314362235.86849403,0.00018709,0.00006756,1153.25366211,0,0,0
1314362235.91759467,0.00018696,0.00006770,1153.42004395,0,0,0
1314362235.96950889,0.00018706,0.00006753,1153.58459473,0,0,0
1314362236.02092075,0.00018692,0.00006768,1153.75085449,0,0,0
1314362236.06953263,0.00018703,0.00006750,1153.91540527,0,0,0
1314362236.12160587,0.00018689,0.00006765,1154.08166504,0,0,0
1314362236.16864586,0.00018699,0.00006748,1154.24621582,0,0,0
1314362236.22145462,0.00018686,0.00006762,1154.41247559,0,0,0
1314362236.26852870,0.00018696,0.00006745,1154.57690430,0,0,0
1314362236.31761241,0.00018683,0.00006760,1154.74316406,0,0,0
1314362236.36955833,0.00018693,0.00006742,1154.90747070,0,0,0
1314362236.42087245,0.00018679,0.00006757,1155.07373047,0,0,0
1314362236.46953154,0.00018690,0.00006740,1155.23803711,0,0,0
1314362236.50949168,0.00018676,0.00006754,1155.40417480,0,0,0
1314362236.56869531,0.00018675,0.00006753,1155.53637695,0,0,0
1314362236.62146902,0.00018673,0.00006752,1155.73474121,0,0,0
1314362236.66965818,0.00018683,0.00006734,1155.89904785,0,0,0
1314362236.71683621,0.00018670,0.00006749,1156.06518555,0,0,0
1314362236.76946616,0.00018680,0.00006732,1156.22949219,0,0,0
1314362236.82061839,0.00018666,0.00006746,1156.39550781,0,0,0
1314362236.86947227,0.00018676,0.00006729,1156.55969238,0,0,0
1314362236.92065883,0.00018663,0.00006744,1156.72570801,0,0,0
1314362236.96858597,0.00018673,0.00006726,1156.88989258,0,0,0
1314362237.02420688,0.00018660,0.00006741,1157.05590820,0,0,0
1314362237.06864500,0.00018670,0.00006724,1157.22009277,0,0,0
1314362237.12062192,0.00018657,0.00006738,1157.38598633,0,0,0
1314362237.17357779,0.00018667,0.00006721,1157.55004883,0,0,0
1314362237.21683002,0.00018653,0.00006736,1157.71582031,0,0,0
1314362237.26954246,0.00018663,0.00006718,1157.87988281,0,0,0
1314362237.32051539,0.00018650,0.00006733,1158.04565430,0,0,0
1314362237.36958814,0.00018660,0.00006716,1158.20971680,0,0,0
1314362237.42193174,0.00018647,0.00006730,1158.37536621,0,0,0
1314362237.46952128,0.00018657,0.00006713,1158.53942871,0,0,0
1314362237.51781559,0.00018644,0.00006728,1158.70507812,0,0,0
1314362237.56948876,0.00018654,0.00006710,1158.86901855,0,0,0
1314362237.62072420,0.00018640,0.00006725,1159.03479004,0,0,0
1314362237.66951776,0.00018650,0.00006708,1159.19873047,0,0,0
1314362237.70952868,0.00018637,0.00006722,1159.36437988,0,0,0
1314362237.76846623,0.00018636,0.00006721,1159.49609375,0,0,0
1314362237.82176566,0.00018634,0.00006720,1159.69372559,0,0,0
1314362237.87052917,0.00018644,0.00006702,1159.85754395,0,0,0
1314362237.92045927,0.00018631,0.00006717,1160.02307129,0,0,0
1314362237.96949148,0.00018641,0.00006700,1160.18688965,0,0,0
1314362238.02064705,0.00018627,0.00006714,1160.35229492,0,0,0
1314362238.06947756,0.00018637,0.00006697,1160.51611328,0,0,0
1314362238.12167120,0.00018624,0.00006712,1160.68151855,0,0,0
1314362238.16870570,0.00018634,0.00006695,1160.84521484,0,0,0
1314362238.22145009,0.00018621,0.00006709,1161.01062012,0,0,0
1314362238.26960659,0.00018631,0.00006692,1161.17431641,0,0,0
1314362238.32062221,0.00018618,0.00006707,1161.33972168,0,0,0
1314362238.36951089,0.00018627,0.00006689,1161.50329590,0,0,0
1314362238.42057037,0.00018614,0.00006704,1161.66870117,0,0,0
1314362238.46947026,0.00018624,0.00006687,1161.83227539,0,0,0
1314362238.52049088,0.00018611,0.00006701,1161.99755859,0,0,0
1314362238.56952524,0.00018621,0.00006684,1162.16101074,0,0,0
1314362238.60947323,0.00018608,0.00006699,1162.32629395,0,0,0
1314362238.66862488,0.00018606,0.00006698,1162.45788574,0,0,0
1314362238.72082639,0.00018605,0.00006696,1162.65515137,0,0,0
1314362238.76945615,0.00018614,0.00006679,1162.81860352,0,0,0
1314362238.82061124,0.00018601,0.00006694,1162.98376465,0,0,0
1314362238.86873078,0.00018611,0.00006676,1163.14721680,0,0,0
1314362238.92047167,0.00018598,0.00006691,1163.31237793,0,0,0
1314362238.96862173,0.00018608,0.00006674,1163.47583008,0,0,0
1314362239.02067637,0.00018595,0.00006688,1163.64099121,0,0,0
1314362239.06861377,0.00018605,0.00006671,1163.80432129,0,0,0
1314362239.12072587,0.00018592,0.00006686,1163.96948242,0,0,0
1314362239.16948724,0.00018601,0.00006669,1164.13293457,0,0,0
1314362239.22080922,0.00018588,0.00006683,1164.29797363,0,0,0
1314362239.26947522,0.00018598,0.00006666,1164.46142578,0,0,0
1314362239.32066154,0.00018585,0.00006681,1164.62646484,0,0,0
1314362239.36870265,0.00018595,0.00006663,1164.78979492,0,0,0
1314362239.42144990,0.00018582,0.00006678,1164.95495605,0,0,0
1314362239.46950459,0.00018592,0.00006661,1165.11816406,0,0,0
1314362239.52050686,0.00018579,0.00006675,1165.28320312,0,0,0
1314362239.56948018,0.00018588,0.00006658,1165.44641113,0,0,0
1314362239.62065005,0.00018575,0.00006673,1165.61145020,0,0,0
1314362239.66945958,0.00018585,0.00006656,1165.77465820,0,0,0
1314362239.72064996,0.00018572,0.00006670,1165.93957520,0,0,0
1314362239.76879239,0.00018582,0.00006653,1166.10278320,0,0,0
1314362239.82149363,0.00018569,0.00006668,1166.26770020,0,0,0
1314362239.86862421,0.00018579,0.00006651,1166.43078613,0,0,0
1314362239.92062426,0.00018566,0.00006665,1166.59570312,0,0,0
1314362239.96950221,0.00018575,0.00006648,1166.75878906,0,0,0
1314362240.02084708,0.00018562,0.00006663,1166.92358398,0,0,0
1314362240.06947541,0.00018572,0.00006646,1167.08679199,0,0,0
1314362240.12058091,0.00018559,0.00006660,1167.25146484,0,0,0
1314362240.16862917,0.00018569,0.00006643,1167.41455078,0,0,0
1314362240.22144198,0.00018556,0.00006658,1167.57934570,0,0,0
1314362240.26870084,0.00018566,0.00006640,1167.74230957,0,0,0
1314362240.32167149,0.00018553,0.00006655,1167.90710449,0,0,0
1314362240.36946464,0.00018562,0.00006638,1168.07006836,0,0,0
1314362240.42150784,0.00018549,0.00006652,1168.23474121,0,0,0
1314362240.46962667,0.00018559,0.00006635,1168.39770508,0,0,0
1314362240.52068710,0.00018546,0.00006650,1168.56225586,0,0,0
1314362240.56876731,0.00018556,0.00006633,1168.72521973,0,0,0
1314362240.62306499,0.00018543,0.00006647,1168.88977051,0,0,0
1314362240.66955137,0.00018553,0.00006630,1169.05273438,0,0,0
1314362240.72068191,0.00018540,0.00006645,1169.21728516,0,0,0
1314362240.76948595,0.00018549,0.00006628,1169.38012695,0,0,0
1314362240.82070327,0.00018536,0.00006642,1169.54467773,0,0,0
1314362240.86947036,0.00018546,0.00006625,1169.70751953,0,0,0
1314362240.92070532,0.00018533,0.00006640,1169.87194824,0,0,0
1314362240.96964908,0.00018543,0.00006623,1170.03479004,0,0,0
1314362241.02146816,0.00018530,0.00006637,1170.19921875,0,0,0
1314362241.06966257,0.00018540,0.00006620,1170.36193848,0,0,0
1314362241.11764216,0.00018527,0.00006635,1170.52636719,0,0,0
1314362241.16945195,0.00018536,0.00006618,1170.68908691,0,0,0
1314362241.21765208,0.00018523,0.00006632,1170.85339355,0,0,0
1314362241.26950812,0.00018533,0.00006615,1171.01611328,0,0,0
1314362241.32059789,0.00018520,0.00006630,1171.18041992,0,0,0
1314362241.36854577,0.00018530,0.00006613,1171.34301758,0,0,0
1314362241.42146087,0.00018517,0.00006627,1171.50720215,0,0,0
1314362241.46865606,0.00018527,0.00006610,1171.66979980,0,0,0
1314362241.52067804,0.00018514,0.00006625,1171.83410645,0,0,0
1314362241.56946874,0.00018523,0.00006608,1171.99658203,0,0,0
1314362241.62155175,0.00018511,0.00006622,1172.16088867,0,0,0
1314362241.66950130,0.00018520,0.00006605,1172.32336426,0,0,0
1314362241.70953393,0.00018507,0.00006620,1172.48767090,0,0,0
1314362241.76965141,0.00018506,0.00006619,1172.61828613,0,0,0
1314362241.82144976,0.00018504,0.00006617,1172.81433105,0,0,0
1314362241.86862111,0.00018514,0.00006600,1172.97692871,0,0,0
1314362241.91763878,0.00018501,0.00006615,1173.14099121,0,0,0
1314362241.96956611,0.00018510,0.00006598,1173.30346680,0,0,0
1314362242.02061796,0.00018498,0.00006612,1173.46765137,0,0,0
1314362242.06946802,0.00018507,0.00006595,1173.63012695,0,0,0
1314362242.12052011,0.00018494,0.00006610,1173.79418945,0,0,0
1314362242.16863632,0.00018504,0.00006593,1173.95654297,0,0,0
1314362242.22180080,0.00018491,0.00006607,1174.12060547,0,0,0
1314362242.26865530,0.00018501,0.00006590,1174.28295898,0,0,0
1314362242.31763387,0.00018488,0.00006605,1174.44702148,0,0,0
1314362242.36950660,0.00018497,0.00006588,1174.60925293,0,0,0
1314362242.42061925,0.00018485,0.00006602,1174.77331543,0,0,0
1314362242.46946979,0.00018494,0.00006585,1174.93566895,0,0,0
1314362242.52047753,0.00018481,0.00006600,1175.09960938,0,0,0
1314362242.56949592,0.00018491,0.00006583,1175.26184082,0,0,0
1314362242.62143302,0.00018478,0.00006597,1175.42578125,0,0,0
1314362242.67157674,0.00018488,0.00006580,1175.58813477,0,0,0
1314362242.72089672,0.00018475,0.00006595,1175.75195312,0,0,0
1314362242.77230477,0.00018484,0.00006578,1175.91430664,0,0,0
1314362242.82058668,0.00018472,0.00006592,1176.07812500,0,0,0
1314362242.86948681,0.00018481,0.00006575,1176.24035645,0,0,0
1314362242.92048120,0.00018468,0.00006590,1176.40417480,0,0,0
1314362242.96857452,0.00018478,0.00006573,1176.56628418,0,0,0
1314362243.02146816,0.00018465,0.00006587,1176.73010254,0,0,0
1314362243.06945872,0.00018475,0.00006570,1176.89221191,0,0,0
1314362243.12061930,0.00018462,0.00006585,1177.05590820,0,0,0
1314362243.16958857,0.00018471,0.00006568,1177.21789551,0,0,0
1314362243.22050381,0.00018459,0.00006583,1177.38159180,0,0,0
1314362243.26950192,0.00018468,0.00006566,1177.54357910,0,0,0
1314362243.30951071,0.00018456,0.00006580,1177.70727539,0,0,0
1314362243.36847425,0.00018454,0.00006579,1177.83740234,0,0,0
1314362243.42309976,0.00018452,0.00006578,1178.03271484,0,0,0
1314362243.46856427,0.00018462,0.00006561,1178.19470215,0,0,0
1314362243.52063560,0.00018449,0.00006575,1178.35827637,0,0,0
1314362243.56946921,0.00018458,0.00006558,1178.52014160,0,0,0
1314362243.61751223,0.00018446,0.00006573,1178.68371582,0,0,0
1314362243.66949487,0.00018455,0.00006556,1178.84558105,0,0,0
1314362243.71755505,0.00018443,0.00006570,1179.00903320,0,0,0
1314362243.76956487,0.00018452,0.00006553,1179.17077637,0,0,0
1314362243.81747079,0.00018439,0.00006568,1179.33435059,0,0,0
1314362243.86853886,0.00018449,0.00006551,1179.49609375,0,0,0
1314362243.92062306,0.00018436,0.00006565,1179.65942383,0,0,0
1314362243.96948361,0.00018446,0.00006548,1179.82116699,0,0,0
1314362244.01751566,0.00018433,0.00006563,1179.98461914,0,0,0
1314362244.06950355,0.00018442,0.00006546,1180.14636230,0,0,0
1314362244.12049651,0.00018430,0.00006561,1180.30969238,0,0,0
1314362244.16857290,0.00018439,0.00006543,1180.47131348,0,0,0
1314362244.21744704,0.00018427,0.00006558,1180.63464355,0,0,0
1314362244.26865196,0.00018436,0.00006541,1180.79614258,0,0,0
1314362244.32063198,0.00018423,0.00006556,1180.95947266,0,0,0
1314362244.36950874,0.00018433,0.00006539,1181.12097168,0,0,0
1314362244.42062545,0.00018420,0.00006553,1181.28417969,0,0,0
1314362244.46947265,0.00018430,0.00006536,1181.44567871,0,0,0
1314362244.51756692,0.00018417,0.00006551,1181.60876465,0,0,0
1314362244.56949592,0.00018426,0.00006534,1181.77026367,0,0,0
1314362244.61745691,0.00018414,0.00006548,1181.93334961,0,0,0
1314362244.66964626,0.00018423,0.00006531,1182.09472656,0,0,0
1314362244.72059917,0.00018411,0.00006546,1182.25781250,0,0,0
1314362244.76948690,0.00018420,0.00006529,1182.41906738,0,0,0
1314362244.81762528,0.00018408,0.00006543,1182.58215332,0,0,0
1314362244.86951542,0.00018417,0.00006526,1182.74340820,0,0,0
1314362244.91749644,0.00018405,0.00006541,1182.90637207,0,0,0
1314362244.96864271,0.00018414,0.00006524,1183.06762695,0,0,0
1314362245.02046895,0.00018401,0.00006538,1183.23046875,0,0,0
1314362245.06848621,0.00018411,0.00006521,1183.39172363,0,0,0
1314362245.12151074,0.00018398,0.00006536,1183.55456543,0,0,0
1314362245.16948628,0.00018407,0.00006519,1183.71569824,0,0,0
1314362245.22062635,0.00018395,0.00006533,1183.87854004,0,0,0
1314362245.26955295,0.00018404,0.00006516,1184.03967285,0,0,0
1314362245.32052851,0.00018392,0.00006531,1184.20251465,0,0,0
1314362245.36869979,0.00018401,0.00006514,1184.36352539,0,0,0
1314362245.42247581,0.00018389,0.00006528,1184.52624512,0,0,0
1314362245.46962571,0.00018398,0.00006511,1184.68725586,0,0,0
1314362245.52373791,0.00018386,0.00006526,1184.84997559,0,0,0
1314362245.56741548,0.00018395,0.00006509,1185.01098633,0,0,0
1314362245.62061143,0.00018383,0.00006523,1185.17370605,0,0,0
1314362245.66955948,0.00018392,0.00006506,1185.33459473,0,0,0
1314362245.70947313,0.00018380,0.00006521,1185.49731445,0,0,0
1314362245.76855159,0.00018378,0.00006520,1185.62670898,0,0,0
1314362245.82046056,0.00018376,0.00006519,1185.82092285,0,0,0
1314362245.86961079,0.00018386,0.00006502,1185.98181152,0,0,0
1314362245.92153645,0.00018373,0.00006516,1186.14428711,0,0,0
1314362245.96845198,0.00018382,0.00006499,1186.30517578,0,0,0
1314362246.01753569,0.00018370,0.00006514,1186.46777344,0,0,0
1314362246.06960440,0.00018379,0.00006497,1186.62854004,0,0,0
1314362246.10848331,0.00018367,0.00006511,1186.79101562,0,0,0
1314362246.16859794,0.00018366,0.00006510,1186.92041016,0,0,0
1314362246.21746922,0.00018364,0.00006509,1187.11437988,0,0,0
1314362246.26858640,0.00018373,0.00006492,1187.27514648,0,0,0
1314362246.32053757,0.00018361,0.00006506,1187.43750000,0,0,0
1314362246.36946368,0.00018370,0.00006489,1187.59826660,0,0,0
1314362246.42056131,0.00018358,0.00006504,1187.76062012,0,0,0
1314362246.46848297,0.00018367,0.00006487,1187.92126465,0,0,0
1314362246.52045107,0.00018355,0.00006501,1188.08361816,0,0,0
1314362246.56863070,0.00018364,0.00006485,1188.24426270,0,0,0
1314362246.61744094,0.00018351,0.00006499,1188.40661621,0,0,0
1314362246.66949415,0.00018360,0.00006482,1188.56726074,0,0,0
1314362246.72146916,0.00018348,0.00006497,1188.72961426,0,0,0
1314362246.76948380,0.00018357,0.00006480,1188.89025879,0,0,0
1314362246.81766963,0.00018345,0.00006494,1189.05249023,0,0,0
1314362246.86956024,0.00018354,0.00006477,1189.21313477,0,0,0
1314362246.91771388,0.00018342,0.00006492,1189.37536621,0,0,0
1314362246.96967816,0.00018351,0.00006475,1189.53588867,0,0,0
1314362247.02056217,0.00018339,0.00006490,1189.69812012,0,0,0
1314362247.06859255,0.00018348,0.00006473,1189.85864258,0,0,0
1314362247.12052679,0.00018335,0.00006487,1190.02087402,0,0,0
1314362247.16951656,0.00018344,0.00006470,1190.18127441,0,0,0
1314362247.21754909,0.00018332,0.00006485,1190.34338379,0,0,0
1314362247.26955485,0.00018341,0.00006468,1190.50390625,0,0,0
1314362247.31748533,0.00018329,0.00006483,1190.66601562,0,0,0
1314362247.36951613,0.00018338,0.00006466,1190.82641602,0,0,0
1314362247.41870856,0.00018326,0.00006480,1190.98840332,0,0,0
1314362247.46944785,0.00018335,0.00006463,1191.14880371,0,0,0
1314362247.51850414,0.00018322,0.00006478,1191.31079102,0,0,0
1314362247.56747913,0.00018331,0.00006461,1191.47119141,0,0,0
1314362247.61862040,0.00018319,0.00006476,1191.63317871,0,0,0
1314362247.66946936,0.00018328,0.00006459,1191.79345703,0,0,0
1314362247.70948482,0.00018316,0.00006473,1191.95544434,0,0,0
1314362247.76847434,0.00018315,0.00006472,1192.08435059,0,0,0
1314362247.81743693,0.00018313,0.00006471,1192.27770996,0,0,0
1314362247.86847281,0.00018322,0.00006454,1192.43798828,0,0,0
1314362247.92140293,0.00018309,0.00006469,1192.59985352,0,0,0
1314362247.96952891,0.00018318,0.00006452,1192.76000977,0,0,0
1314362248.02045417,0.00018306,0.00006466,1192.92187500,0,0,0
1314362248.06948829,0.00018315,0.00006449,1193.08215332,0,0,0
1314362248.11736989,0.00018303,0.00006464,1193.24389648,0,0,0
1314362248.16855526,0.00018312,0.00006447,1193.40405273,0,0,0
1314362248.21744370,0.00018300,0.00006462,1193.56579590,0,0,0
1314362248.26954484,0.00018309,0.00006445,1193.72595215,0,0,0
1314362248.31976080,0.00018296,0.00006459,1193.88769531,0,0,0
1314362248.36975074,0.00018305,0.00006442,1194.04772949,0,0,0
1314362248.41751361,0.00018293,0.00006457,1194.20935059,0,0,0
1314362248.46947289,0.00018302,0.00006440,1194.36938477,0,0,0
1314362248.51739216,0.00018290,0.00006455,1194.53100586,0,0,0
1314362248.57096291,0.00018299,0.00006438,1194.69104004,0,0,0
1314362248.61734128,0.00018287,0.00006452,1194.85266113,0,0,0
1314362248.66951299,0.00018296,0.00006435,1195.01257324,0,0,0
1314362248.71751857,0.00018284,0.00006450,1195.17419434,0,0,0
1314362248.76949644,0.00018292,0.00006433,1195.33398438,0,0,0
